Вернуться в каталог

THORAD AGENA D DEB

АктивенLEO
NORAD 6167·DEBRIS·🇺🇸 United States

Запущен Apr 8, 1970 с Vandenberg Space Force Base

Loading…

Ближайшие Пролёты (ближайшие 24 часа)

TLE

СвежийSource: Space-Track

Эпоха: Sep 13, 2026, 15:09 UTC

1 06167U 70025NB  26256.63137532  .00000280  00000-0  37851-3 0  9992
2 06167 100.1180 280.5345 0032926 103.1319  16.9586 13.69148507807464

Отслеживайте THORAD AGENA D DEB в реальном времени с AllMySat

Download on the App Store